Location: Unnamed
(51.5169°N, 0.1311°W)
Time: 19:23:26
(UTC+01:00)

Tiros 1 - Pass Details

Date: 14 August 2024
Orbit: 623 x 655 km, 48.4° (Epoch: 16 September)

Event Time Altitude Azimuth Distance (km) Brightness Sun altitude
Rises 11:05:41 0° 277° (W) 2,979 10.2 45.6°
Reaches altitude 10° 11:08:54 10° 255° (WSW) 2,060 9.6 45.9°
Maximum altitude 11:11:37 15° 220° (SW) 1,730 9.6 46.2°
Drops below altitude 10° 11:14:18 10° 185° (S) 2,045 10.3 46.5°
Sets 11:17:30 0° 162° (SSE) 2,945 11.2 46.8°
